PDT,Max TemperatureF,Mean TemperatureF,Min TemperatureF,Max Dew PointF,MeanDew PointF,Min DewpointF,Max Humidity, Mean Humidity, Min Humidity, Max Sea Level PressureIn, Mean Sea Level PressureIn, Min Sea Level PressureIn, Max VisibilityMiles, Mean VisibilityMiles, Min VisibilityMiles, Max Wind SpeedMPH, Mean Wind SpeedMPH, Max Gust SpeedMPH,PrecipitationIn, CloudCover, Events, WindDirDegrees
2013-4-1,72,55,37,37,34,29,79,51,22,29.99,29.96,29.92,10,10,10,12,3,15,0.00,0,,343
2013-4-2,66,54,41,43,40,35,89,63,37,30.11,30.04,29.99,10,10,9,17,9,23,0.00,3,,174
2013-4-3,62,49,35,41,38,35,100,70,39,30.13,30.07,30.02,10,10,7,13,5,28,0.00,2,,182
2013-4-4,57,47,36,49,44,34,93,74,55,30.02,29.82,29.72,10,9,2,18,6,23,0.19,7,Rain,74
2013-4-5,60,53,45,46,42,39,93,72,51,29.86,29.82,29.79,10,10,6,25,11,31,0.08,7,Rain,201
2013-4-6,57,50,42,43,38,29,92,64,35,29.87,29.83,29.80,10,10,9,29,14,37,0.08,6,Rain,191
2013-4-7,50,44,37,43,38,33,92,77,61,29.81,29.63,29.54,10,8,2,24,8,31,0.49,8,Rain,137
2013-4-8,46,42,37,34,33,28,85,67,49,30.22,29.99,29.76,10,10,7,12,6,,0.00,7,,87
2013-4-9,53,48,42,37,32,28,76,59,41,30.31,30.25,30.20,10,10,10,8,2,,0.00,6,,199
2013-4-10,59,46,32,47,38,35,100,74,47,30.20,29.97,29.78,10,9,2,32,6,40,0.18,6,Rain,191
2013-4-11,53,42,30,34,32,27,92,65,38,30.12,30.08,30.01,10,9,2,18,6,25,0.00,3,,195
2013-4-12,52,40,27,37,32,24,92,68,44,30.11,29.89,29.59,10,10,10,25,8,32,0.07,6,Rain,183
2013-4-13,51,38,25,37,27,17,86,57,27,29.84,29.65,29.54,10,10,10,24,11,30,T,5,,237
2013-4-14,49,37,25,32,27,21,92,67,42,29.98,29.92,29.85,10,10,10,14,5,16,T,5,Rain,115
2013-4-15,48,38,28,25,17,14,69,49,29,30.18,30.04,29.93,10,10,10,22,12,26,0.00,4,,42
2013-4-16,48,35,22,16,13,11,74,49,23,30.39,30.29,30.15,10,10,10,25,9,32,0.00,3,,41
2013-4-17,53,36,19,21,16,12,75,48,21,30.45,30.38,30.32,10,10,10,14,5,32,0.00,1,,206
2013-4-18,55,40,24,38,28,18,74,56,38,30.36,30.29,30.16,10,10,10,18,7,24,0.03,4,Rain,176
2013-4-19,58,49,39,47,43,39,100,78,55,30.15,29.98,29.90,10,9,2,20,8,23,0.57,8,Rain-Thunderstorm,187
2013-4-20,61,48,34,40,36,30,100,66,32,30.08,30.00,29.94,10,7,0,28,10,35,0.00,6,Fog,207
2013-4-21,49,41,33,37,34,30,96,76,56,30.35,30.13,30.06,10,9,2,18,6,24,0.05,6,Rain-Snow,53
2013-4-22,53,41,28,32,25,18,92,59,26,30.51,30.42,30.29,10,10,3,14,5,21,0.00,1,Snow,21
2013-4-23,59,41,23,28,24,20,85,57,28,30.37,30.29,30.22,10,10,10,13,2,16,0.00,2,,229
2013-4-24,62,43,23,32,28,22,92,58,23,30.31,30.18,29.99,10,10,10,17,6,24,0.00,0,,189
2013-4-25,69,48,26,34,30,24,92,58,23,30.04,29.98,29.96,10,10,10,18,5,22,0.00,0,,227
2013-4-26,73,54,34,41,35,27,82,54,25,30.17,30.10,30.04,10,10,10,21,7,25,0.00,0,,198
2013-4-27,64,56,47,37,33,29,56,42,27,30.08,30.01,29.94,10,10,10,30,12,40,0.00,2,,190
2013-4-28,61,48,34,38,32,24,89,59,28,30.07,29.97,29.81,10,10,10,28,12,36,0.00,5,,205
2013-4-29,56,42,27,33,24,14,67,46,24,29.95,29.80,29.71,10,10,10,33,14,41,T,5,,262
2013-4-30,48,34,20,31,24,17,92,65,37,30.38,30.15,29.97,10,10,5,18,4,24,0.02,3,Rain-Snow,257